Weather History for Corpus Christi, TX

Change the Weather History Date:

Saturday, April 6, 2013

  Actual Average Record
Temperature  
Mean Temperature 70 °F 70 °F  
Max Temperature 83 °F 80 °F 95 °F (1909)
Min Temperature 57 °F 61 °F 43 °F (1996)
Degree Days  
Heating Degree Days 0 1  
Month to date heating degree days 5 6  
Since 1 July heating degree days 521 887  
Cooling Degree Days 5 6  
Month to date cooling degree days 33 36  
Year to date cooling degree days 334 227  
Growing Degree Days 20 (Base 50)    
Moisture  
Dew Point 56 °F    
Average Humidity 61    
Maximum Humidity 80    
Minimum Humidity 42    
Precipitation  
Precipitation 0.00 in 0.05 in 4.00 in (1894)
Month to date precipitation 0.01 0.32  
Year to date precipitation 1.76 5.68  
Snow  
Snow 0.00 in - - ()
Month to date snowfall 0.0  
Since 1 July snowfall 0.0  
Snow Depth 0.00 in    
Sea Level Pressure  
Sea Level Pressure 29.99 in    
Wind  
Wind Speed 17 mph (SSE)    
Max Wind Speed 30 mph    
Max Gust Speed 41 mph    
Visibility 10 miles    
Events      
T = Trace of Precipitation, MM = Missing Value Source: NWS Daily Summary

Daily Weather History Graph

Daily Weather History Graph

Search for Another Location

Airport:

Trip Planner

Search our weather history database for the weather conditions in past years. The results will help you decide how hot, cold, wet, or windy it might be!

Date:

Astronomy

Apr. 06, 2013 Rise Set
Actual Time 7:14 AM CDT 7:50 PM CDT
Civil Twilight 6:50 AM CDT 8:14 PM CDT
Nautical Twilight 6:23 AM CDT 8:42 PM CDT
Astronomical Twilight 5:54 AM CDT 9:10 PM CDT
Moon 4:40 AM CDT (4/6) 4:36 PM CDT (4/6)
Length of Visible Light 13h 23m
Length of Day
12h 35m
Waning Crescent, 15% of the Moon is Illuminated
Apr 6
Waning Crescent
Apr 10
New
Apr 18
First Quarter
Apr 25
Full
May 2
Last Quarter

Hourly Weather History & Observations

Time (CDT) Temp. Heat Index Dew Point Humidity Pressure Visibility Wind Dir Wind Speed Gust Speed Precip Events Conditions
12:51 AM 59.0 °F - 51.1 °F 75% 30.09 in 10.0 mi SE 5.8 mph - N/A   Partly Cloudy
1:51 AM 59.0 °F - 52.0 °F 78% 30.07 in 10.0 mi SE 6.9 mph - N/A   Partly Cloudy
2:51 AM 59.0 °F - 53.1 °F 81% 30.06 in 10.0 mi SE 4.6 mph - N/A   Partly Cloudy
3:51 AM 59.0 °F - 52.0 °F 78% 30.03 in 10.0 mi SE 8.1 mph - N/A   Partly Cloudy
4:51 AM 57.9 °F - 51.1 °F 78% 30.03 in 10.0 mi South 5.8 mph - N/A   Partly Cloudy
5:51 AM 57.9 °F - 52.0 °F 81% 30.03 in 10.0 mi SSE 5.8 mph - N/A   Scattered Clouds
6:51 AM 60.1 °F - 53.1 °F 78% 30.02 in 10.0 mi SE 9.2 mph - N/A   Partly Cloudy
7:51 AM 62.1 °F - 55.9 °F 80% 30.02 in 10.0 mi SE 9.2 mph - N/A   Partly Cloudy
8:51 AM 70.0 °F - 59.0 °F 68% 30.02 in 10.0 mi SE 16.1 mph - N/A   Partly Cloudy
9:51 AM 72.0 °F - 57.0 °F 59% 30.04 in 10.0 mi SSE 23.0 mph 28.8 mph N/A   Scattered Clouds
10:51 AM 75.9 °F - 57.0 °F 52% 30.04 in 10.0 mi SSE 24.2 mph - N/A   Scattered Clouds
11:51 AM 79.0 °F - 57.0 °F 47% 30.03 in 10.0 mi South 23.0 mph 31.1 mph N/A   Scattered Clouds
12:51 PM 81.0 °F 80.8 °F 55.9 °F 42% 30.01 in 10.0 mi SSE 21.9 mph 31.1 mph N/A   Scattered Clouds
1:51 PM 81.0 °F 80.8 °F 55.9 °F 42% 29.98 in 10.0 mi SSE 25.3 mph 35.7 mph N/A   Partly Cloudy
2:51 PM 82.9 °F 82.4 °F 57.0 °F 41% 29.94 in 10.0 mi SSE 26.5 mph 35.7 mph N/A   Partly Cloudy
3:51 PM 82.0 °F 81.7 °F 57.0 °F 42% 29.92 in 10.0 mi SSE 24.2 mph 34.5 mph N/A   Partly Cloudy
4:51 PM 81.0 °F 81.0 °F 57.0 °F 44% 29.90 in 10.0 mi SSE 26.5 mph 34.5 mph N/A   Partly Cloudy
5:51 PM 78.1 °F - 57.9 °F 50% 29.90 in 10.0 mi SSE 24.2 mph 33.4 mph N/A   Clear
6:51 PM 75.9 °F - 57.0 °F 52% 29.89 in 10.0 mi SSE 25.3 mph 32.2 mph N/A   Partly Cloudy
7:51 PM 73.0 °F - 57.9 °F 59% 29.90 in 10.0 mi SSE 21.9 mph - N/A   Partly Cloudy
8:51 PM 71.1 °F - 59.0 °F 66% 29.90 in 10.0 mi SSE 19.6 mph 26.5 mph N/A   Partly Cloudy
9:51 PM 71.1 °F - 59.0 °F 66% 29.93 in 10.0 mi SSE 17.3 mph - N/A   Partly Cloudy
10:51 PM 69.1 °F - 60.1 °F 73% 29.93 in 10.0 mi SSE 12.7 mph - N/A   Partly Cloudy
11:51 PM 68.0 °F - 60.1 °F 76% 29.94 in 10.0 mi SE 10.4 mph - N/A   Clear